TimePST,TemperatureF,Dew PointF,Humidity,Sea Level PressureIn,VisibilityMPH,Wind Direction,Wind SpeedMPH,Gust SpeedMPH,PrecipitationIn,Events,Conditions,WindDirDegrees,DateUTC
12:56 AM,36.0,21.9,57,30.21,10.0,North,3.5,-,N/A,,Overcast,360,2014-01-28 08:56:00
1:56 AM,37.0,19.9,50,30.21,10.0,NNE,4.6,-,N/A,,Overcast,20,2014-01-28 09:56:00
2:56 AM,35.1,21.9,59,30.22,10.0,Calm,Calm,-,N/A,,Overcast,0,2014-01-28 10:56:00
3:56 AM,33.1,23.0,66,30.23,10.0,SSE,4.6,-,N/A,,Overcast,160,2014-01-28 11:56:00
4:56 AM,33.1,23.0,66,30.25,10.0,SE,5.8,-,N/A,,Overcast,130,2014-01-28 12:56:00
5:56 AM,34.0,21.9,61,30.26,10.0,East,5.8,-,N/A,,Overcast,90,2014-01-28 13:56:00
6:56 AM,34.0,23.0,64,30.27,10.0,East,5.8,-,N/A,,Overcast,90,2014-01-28 14:56:00
7:56 AM,35.1,24.1,64,30.28,10.0,Calm,Calm,-,N/A,,Overcast,0,2014-01-28 15:56:00
8:56 AM,39.9,25.0,55,30.28,10.0,Calm,Calm,-,N/A,,Overcast,0,2014-01-28 16:56:00
9:56 AM,46.0,25.0,44,30.27,10.0,West,4.6,-,N/A,,Clear,270,2014-01-28 17:56:00
10:56 AM,48.9,25.0,39,30.27,10.0,Calm,Calm,-,N/A,,Clear,0,2014-01-28 18:56:00
11:56 AM,52.0,28.0,40,30.24,10.0,WNW,4.6,-,N/A,,Clear,290,2014-01-28 19:56:00
12:56 PM,54.0,28.9,38,30.21,10.0,Variable,5.8,-,N/A,,Clear,0,2014-01-28 20:56:00
1:56 PM,53.1,28.9,40,30.17,10.0,West,9.2,-,N/A,,Scattered Clouds,260,2014-01-28 21:56:00
2:56 PM,54.0,28.0,37,30.17,10.0,West,5.8,-,N/A,,Mostly Cloudy,260,2014-01-28 22:56:00
3:56 PM,52.0,30.0,43,30.19,10.0,SSW,6.9,-,N/A,,Mostly Cloudy,210,2014-01-28 23:56:00
4:56 PM,48.9,28.9,46,30.18,10.0,SSW,5.8,-,N/A,,Mostly Cloudy,200,2014-01-29 00:56:00
5:56 PM,46.0,28.9,51,30.19,10.0,South,6.9,-,N/A,,Overcast,170,2014-01-29 01:56:00
6:56 PM,46.9,28.9,50,30.21,10.0,SW,4.6,-,N/A,,Overcast,220,2014-01-29 02:56:00
7:56 PM,45.0,30.9,58,30.20,10.0,South,8.1,-,N/A,,Mostly Cloudy,180,2014-01-29 03:56:00
8:56 PM,44.1,32.0,63,30.18,10.0,South,9.2,-,N/A,,Scattered Clouds,170,2014-01-29 04:56:00
9:56 PM,46.0,33.1,61,30.16,10.0,South,11.5,-,N/A,,Overcast,180,2014-01-29 05:56:00
10:56 PM,46.0,33.1,61,30.14,10.0,South,15.0,-,N/A,,Overcast,190,2014-01-29 06:56:00
11:56 PM,45.0,36.0,71,30.14,10.0,South,6.9,-,0.00,Rain,Light Rain,190,2014-01-29 07:56:00